Showing default

COSMOS 2538, 44424

Orbit data source: Space-Track

COSMOS 2538, 44424 is a payload satellite owned by TsNIIKhM (CIS) in SSO that was launched on Wed, 10 Jul 2019 UTC via a SOYUZ-2-1V launch vehicle from the Plesetsk Missile And Space Complex (PKMTR). Payload-class satellites include a variety of spacecraft equipped with specific instruments for various scientific and technological missions. These include communications satellites like Starlink; space stations such as the ISS; scientific satellites like the Hubble; Earth observation satellites from companies like Planet Labs, Umbra, and HawkEye 360; GPS; miniature CubeSats for education and research; and military/defense satellites.

Loading next visibility...
Identifier
44424, 2019-039D
Orbit
SSO
Country
Flag of CISCIS
Related business
Manufacturer
TsNIIKhM
Mission
Operational Defense Technology
Bus & Motor
NIVELIR, Unknown motor
Mass
~100 kg wet, ~100 kg dry
Launch date (UTC)
2019-07-10 (7 years ago)
Launch vehicle
SOYUZ-2-1V
Launch site
Plesetsk Missile And Space Complex (PKMTR)
Object type
Payload
Rocket body
Debris
Shape & HBR
Hex Cyl + 1 Ant, 0.4 m
Radar Cross Section
0.503 m², Medium (>0.1 m² and < 1m²)

Expand to show TLE details & history
Last TLE update: 7 hours ago

TLE from 7 hours ago
0 COSMOS 2538
1 44424U 19039D   26164.61921654  .00006418  00000-0  28799-3 0  9990
2 44424  97.5886 243.9895 0043219  58.4456 302.0988 15.20701402379364
Epoch: 2026-06-13T14:51Z
TLE epoch observation values (Epoch: 2026-06-13T14:51:40.309Z)
Latitude
-0.00001°
Longitude
119.13984°
Altitude
491.094 km
Speed
7.628 km/s
True Right ascension
16h 15m 57s
True Declination
0° 00' 00"
Sunlit
Object was in full shadow at epoch
Visualization orbit readout
Latitude
Unknown
Longitude
Unknown
Altitude
Unknown
Speed
Unknown
Apparent Right ascension
Unknown
Apparent Declination
Unknown
Sunlit
N/A
Visualization observer readout
Local Sidereal Time
08:03:21
Azimuth
Unknown
Elevation
Unknown
Doppler factor
Unknown
Orbital elements
Apogee altitude
530.426 km
Perigee altitude
470.967 km
Semi-major axis
6,878.833 km
Eccentricity
0.00432
Inclination
97.5886°
RAAN
243.9895°
Arg. of periapsis
58.4456°
True anomaly
301.67805°
Mean anomaly
302.0988°
Eccentric anomaly
301.88855°
Mean motion
3.80427 °/min
Orbital period
94.63 mins
BSTAR
0.00028799

Documentation

Showing up to 5 results
|